Two Harbors, MN

3:55 PM CST on January 17, 2017 (GMT -0600)
Helgeson

Weather History for KTWM - November, 2012

Change the Weather History Date:

Sunday, November 18, 2012

  Actual Average Record
Temperature  
Mean Temperature 39 °F -  
Max Temperature 50 °F 38 °F 60 °F (2015)
Min Temperature 28 °F 26 °F -1 °F (1959)
Degree Days  
Heating Degree Days 26    
Moisture  
Dew Point 32 °F    
Average Humidity 74    
Maximum Humidity 87    
Minimum Humidity 53    
Precipitation  
Precipitation 0.02 in - - ()
Sea Level Pressure  
Sea Level Pressure 30.12 in    
Wind  
Wind Speed 3 mph (East)    
Max Wind Speed 9 mph    
Max Gust Speed -    
Visibility 9 miles    
Events Rain    
Averages and records for this station are not official NWS values.
T = Trace of Precipitation, MM = Missing Value Source: NWS Daily Summary

Daily Weather History Graph

Daily Weather History Graph

Search for Another Location

Airport or City:

Trip Planner

Search our weather history database for the weather conditions in past years. The results will help you decide how hot, cold, wet, or windy it might be!

Date:

Astronomy

Nov. 18, 2012 Rise Set
Actual Time 7:15 AM CST 4:28 PM CST
Civil Twilight 6:42 AM CST 5:02 PM CST
Nautical Twilight 6:04 AM CST 5:39 PM CST
Astronomical Twilight 5:28 AM CST 6:15 PM CST
Moon 11:38 AM CST (11/18) 9:54 PM CST (11/18)
Length of Visible Light 10h 20m
Length of Day
9h 13m
Waxing Crescent, 30% of the Moon is Illuminated
Nov 18
Waxing Crescent
Nov 20
First Quarter
Nov 28
Full
Dec 6
Last Quarter
Dec 13
New

Hourly Weather History & Observations

Time (CST) Temp. Windchill Dew Point Humidity Pressure Visibility Wind Dir Wind Speed Gust Speed Precip Events Conditions
12:12 AM 41.0 °F 39.0 °F 35.6 °F 81% 30.21 in 7.0 mi SE 3.5 mph - N/A Rain Light Rain
12:31 AM 41.0 °F 39.0 °F 35.6 °F 81% 30.21 in 7.0 mi SE 3.5 mph - 0.01 in   Overcast
12:51 AM 41.0 °F 38.0 °F 35.6 °F 81% 30.21 in 7.0 mi SE 4.6 mph - 0.02 in Rain Light Rain
1:12 AM 41.0 °F - 35.6 °F 81% 30.20 in 4.0 mi Calm Calm - N/A   Haze
1:31 AM 41.0 °F 39.0 °F 35.6 °F 81% 30.20 in 5.0 mi ENE 3.5 mph - N/A   Haze
1:51 AM 41.0 °F 39.0 °F 35.6 °F 81% 30.20 in 4.0 mi ENE 3.5 mph - N/A   Haze
2:11 AM 41.0 °F 39.0 °F 35.6 °F 81% 30.19 in 4.0 mi ENE 3.5 mph - N/A   Haze
2:31 AM 41.0 °F 39.0 °F 35.6 °F 81% 30.19 in 5.0 mi ENE 3.5 mph - N/A   Haze
2:51 AM 41.0 °F - 35.6 °F 81% 30.19 in 5.0 mi Calm Calm - N/A   Haze
3:11 AM 41.0 °F 38.0 °F 35.6 °F 81% 30.18 in 7.0 mi East 4.6 mph - N/A   Overcast
3:31 AM 41.0 °F 38.0 °F 35.6 °F 81% 30.18 in 7.0 mi East 4.6 mph - N/A   Overcast
3:52 AM 41.0 °F 39.0 °F 35.6 °F 81% 30.17 in 7.0 mi ENE 3.5 mph - N/A   Overcast
4:11 AM 41.0 °F 38.0 °F 35.6 °F 81% 30.17 in 7.0 mi East 4.6 mph - N/A   Overcast
4:31 AM 41.0 °F 39.0 °F 35.6 °F 81% 30.17 in 7.0 mi East 3.5 mph - N/A   Overcast
4:52 AM 41.0 °F 38.0 °F 35.6 °F 81% 30.17 in 7.0 mi East 4.6 mph - N/A   Overcast
5:11 AM 42.8 °F 41.1 °F 35.6 °F 76% 30.17 in 10.0 mi SE 3.5 mph - N/A   Overcast
5:31 AM 42.8 °F 41.1 °F 35.6 °F 76% 30.16 in 10.0 mi ESE 3.5 mph - N/A   Overcast
5:52 AM 39.2 °F - 33.8 °F 81% 30.16 in 10.0 mi Calm Calm - N/A   Overcast
6:11 AM 39.2 °F - 35.6 °F 87% 30.16 in 7.0 mi Calm Calm - N/A   Overcast
6:31 AM 39.2 °F 37.0 °F 35.6 °F 87% 30.16 in 7.0 mi NE 3.5 mph - N/A   Overcast
6:52 AM 39.2 °F 37.0 °F 33.8 °F 81% 30.15 in 10.0 mi ENE 3.5 mph - N/A   Overcast
7:11 AM 39.2 °F - 33.8 °F 81% 30.15 in 10.0 mi Calm Calm - N/A   Overcast
7:31 AM 39.2 °F - 33.8 °F 81% 30.15 in 10.0 mi Calm Calm - N/A   Overcast
7:52 AM 39.2 °F 37.0 °F 33.8 °F 81% 30.15 in 7.0 mi East 3.5 mph - N/A   Overcast
8:11 AM 41.0 °F 39.0 °F 33.8 °F 76% 30.15 in 10.0 mi ESE 3.5 mph - N/A   Overcast
8:31 AM 41.0 °F - 33.8 °F 76% 30.15 in 10.0 mi Calm Calm - N/A   Overcast
8:52 AM 42.8 °F 41.1 °F 33.8 °F 70% 30.15 in 10.0 mi ESE 3.5 mph - N/A   Overcast
9:11 AM 44.6 °F 42.2 °F 33.8 °F 66% 30.15 in 10.0 mi ESE 4.6 mph - N/A   Overcast
9:31 AM 44.6 °F 43.1 °F 33.8 °F 66% 30.15 in 10.0 mi ESE 3.5 mph - N/A   Overcast
9:52 AM 44.6 °F 42.2 °F 33.8 °F 66% 30.15 in 10.0 mi East 4.6 mph - N/A   Overcast
10:11 AM 44.6 °F 42.2 °F 33.8 °F 66% 30.14 in 10.0 mi ESE 4.6 mph - N/A   Overcast
10:31 AM 44.6 °F 42.2 °F 33.8 °F 66% 30.14 in 10.0 mi East 4.6 mph - N/A   Overcast
10:52 AM 44.6 °F 42.2 °F 32.0 °F 61% 30.13 in 10.0 mi ESE 4.6 mph - N/A   Overcast
11:11 AM 44.6 °F 42.2 °F 35.6 °F 71% 30.12 in 10.0 mi East 4.6 mph - N/A   Overcast
11:31 AM 44.6 °F 41.4 °F 35.6 °F 71% 30.11 in 10.0 mi East 5.8 mph - N/A   Overcast
11:51 AM 48.2 °F - 35.6 °F 62% 30.11 in 10.0 mi ESE 5.8 mph - N/A   Overcast
12:11 PM 46.4 °F 41.9 °F 33.8 °F 62% 30.10 in 10.0 mi ESE 9.2 mph - N/A   Mostly Cloudy
12:32 PM 48.2 °F - 33.8 °F 58% 30.09 in 10.0 mi ESE 8.1 mph - N/A   Scattered Clouds
12:51 PM 48.2 °F - 33.8 °F 58% 30.09 in 10.0 mi SE 8.1 mph - N/A   Clear
1:11 PM 48.2 °F - 33.8 °F 58% 30.08 in 10.0 mi SE 8.1 mph - N/A   Clear
1:32 PM 48.2 °F - 33.8 °F 58% 30.07 in 10.0 mi ESE 6.9 mph - N/A   Clear
1:51 PM 50.0 °F - 33.8 °F 54% 30.07 in 10.0 mi East 6.9 mph - N/A   Clear
2:11 PM 48.2 °F - 33.8 °F 58% 30.07 in 10.0 mi East 6.9 mph - N/A   Clear
2:31 PM 48.2 °F - 32.0 °F 54% 30.07 in 10.0 mi East 3.5 mph - N/A   Clear
2:51 PM 48.2 °F - 32.0 °F 54% 30.06 in 10.0 mi East 3.5 mph - N/A   Clear
3:12 PM 48.2 °F - 32.0 °F 54% 30.06 in 10.0 mi East 4.6 mph - N/A   Clear
3:31 PM 46.4 °F 43.5 °F 32.0 °F 57% 30.07 in 10.0 mi East 5.8 mph - N/A   Clear
3:51 PM 46.4 °F 45.2 °F 30.2 °F 53% 30.07 in 10.0 mi East 3.5 mph - N/A   Clear
4:12 PM 44.6 °F 43.1 °F 30.2 °F 57% 30.07 in 10.0 mi East 3.5 mph - N/A   Clear
4:51 PM 41.0 °F 39.0 °F 30.2 °F 65% 30.07 in 10.0 mi NE 3.5 mph - N/A   Clear
5:12 PM 39.2 °F 37.0 °F 30.2 °F 70% 30.07 in 10.0 mi NE 3.5 mph - N/A   Clear
5:31 PM 37.4 °F - 28.4 °F 70% 30.08 in 10.0 mi Calm Calm - N/A   Clear
5:51 PM 37.4 °F 34.9 °F 28.4 °F 70% 30.08 in 10.0 mi NNE 3.5 mph - N/A   Clear
6:12 PM 32.0 °F 27.5 °F 26.6 °F 80% 30.08 in 10.0 mi North 4.6 mph - N/A   Clear
6:31 PM 30.2 °F - 26.6 °F 86% 30.08 in 10.0 mi Calm Calm - N/A   Clear
6:51 PM 30.2 °F 26.7 °F 26.6 °F 86% 30.09 in 10.0 mi North 3.5 mph - N/A   Clear
7:12 PM 30.2 °F 26.7 °F 24.8 °F 80% 30.09 in 10.0 mi North 3.5 mph - N/A   Clear
7:31 PM 33.8 °F 30.8 °F 28.4 °F 81% 30.08 in 10.0 mi North 3.5 mph - N/A   Clear
7:51 PM 33.8 °F 30.8 °F 26.6 °F 75% 30.08 in 10.0 mi North 3.5 mph - N/A   Clear
8:11 PM 30.2 °F 26.7 °F 24.8 °F 80% 30.08 in 10.0 mi North 3.5 mph - N/A   Clear
8:31 PM 28.4 °F - 24.8 °F 86% 30.07 in 10.0 mi Calm Calm - N/A   Clear
8:52 PM 28.4 °F 24.6 °F 23.0 °F 80% 30.07 in 10.0 mi NNE 3.5 mph - N/A   Clear
9:11 PM 28.4 °F - 24.8 °F 86% 30.07 in 10.0 mi Calm Calm - N/A   Clear
9:31 PM 28.4 °F 24.6 °F 24.8 °F 86% 30.07 in 10.0 mi NNE 3.5 mph - N/A   Clear
9:52 PM 28.4 °F - 24.8 °F 86% 30.07 in 10.0 mi Calm Calm - N/A   Clear
10:11 PM 32.0 °F - 26.6 °F 80% 30.07 in 10.0 mi Calm Calm - N/A   Clear
10:31 PM 28.4 °F 24.6 °F 24.8 °F 86% 30.07 in 7.0 mi NNE 3.5 mph - N/A   Clear
10:52 PM 28.4 °F - 23.0 °F 80% 30.07 in 7.0 mi Calm Calm - N/A   Clear
11:11 PM 28.4 °F - 23.0 °F 80% 30.08 in 7.0 mi Calm Calm - N/A   Clear
11:31 PM 28.4 °F 24.6 °F 23.0 °F 80% 30.08 in 7.0 mi NNE 3.5 mph - N/A   Clear
11:52 PM 28.4 °F - 23.0 °F 80% 30.08 in 7.0 mi Calm Calm - N/A   Clear